Regional Weather Roundup
Issued by NWS

Home | Current Version | Previous Version | Text Only | Print | Product List | Glossary On
Versions: 1 2 3 4 5 6 7 8 9 10 11 12 13 14 15 16 17 18 19 20 21 22 23 24 25 26 27 28 29 30 31 32 33 34 35 36 37 38 39 40 41 42 43 44 45 46 47 48 49 50
000
ASUS44 KJAN 200510
RWRMS

MISSISSIPPI HOURLY WEATHER ROUNDUP
NATIONAL WEATHER SERVICE JACKSON MS
1200 AM CDT FRI APR 20 2018

NOTE: "FAIR: INDICATES FEW OR NO CLOUDS BELOW 12,000 FEET WITH NO
SIGNIFICANT WEATHER AND/OR OBSTRUCTIONS TO VISIBILITY.

MSZ001>002-007>008-010>013-018>021-025>028-034>036-200600-
NORTHWEST MISSISSIPPI

CITY           SKY/WX    TMP DP  RH WIND       PRES   REMARKS
BATESVILLE       N/A    N/A N/A N/A MISG        N/A
CLARKSDALE       N/A     46  36  66 N8        30.34F
CLEVELAND      FAIR      47  34  61 N9        30.32F
GREENWOOD      FAIR      46  36  68 N6        30.31S
GREENVILLE     FAIR      47  32  56 NE8       30.32R
OXFORD         FAIR      43  32  65 N5        30.34S
TUNICA           N/A     41  34  75 N7        30.36F
$$

MSZ003>006-009-014>017-022>024-029>033-037>039-200600-
NORTHEAST MISSISSIPPI

CITY           SKY/WX    TMP DP  RH WIND       PRES   REMARKS
ABERDEEN         N/A     45  39  81 N5        30.31S
COLUMBUS AFB   FAIR      47  37  68 N3        30.28S
CORINTH        FAIR      45  32  61 NE7       30.34S
GOLDN TRIANGLE FAIR      45  36  70 N7        30.29S
STARKVILLE     FAIR      45  36  70 N5        30.30S
TUPELO         FAIR      47  32  56 N12       30.31S
$$

MSZ040-058-200600-
CENTRAL MISSISSIPPI

CITY           SKY/WX    TMP DP  RH WIND       PRES   REMARKS
JACKSON INTL   FAIR      48  38  68 N10       30.26F
JACKSON HAWKNS FAIR      49  37  63 N5        30.28F
MADISON        FAIR      45  36  70 CALM      30.27F
MERIDIAN KEY   FAIR      50  36  58 N9        30.25F
MERIDIAN NAS   FAIR      50  37  61 N7        30.26S
RAYMOND        FAIR      46  39  76 CALM      30.28S
VICKSBURG VKS  CLEAR     52  34  50 NE7       30.29F
$$

MSZ059>079-200600-
SOUTH MISSISSIPPI

CITY           SKY/WX    TMP DP  RH WIND       PRES   REMARKS
COLUMBIA       FAIR      50  39  66 N6        30.29R
HATTIESBURG    FAIR      53  43  68 N5        30.24F
LAUREL         FAIR      49  40  70 N5        30.25S
MCCOMB         FAIR      53  36  52 N12       30.23F
NATCHEZ        FAIR      47  40  76 N3        30.28S
PINE BELT      FAIR      50  42  74 N7        30.25S
$$

MSZ080>082-200600-
COASTAL MISSISSIPPI

CITY           SKY/WX    TMP DP  RH WIND       PRES   REMARKS
BILOXI         FAIR      59  43  55 NE10      30.18S
PASCAGOULA     FAIR      58  40  51 N10       30.19S
GULFPORT       FAIR      58  44  60 N8        30.19S
$$

LAZ007>009-015>016-023>026-200600-
NORTHEAST LOUISIANA

CITY           SKY/WX    TMP DP  RH WIND       PRES   REMARKS
BASTROP        FAIR      44  37  76 CALM      30.32S
TALLULAH/VBURG FAIR      50  39  66 N5        30.30S
VIDALIA        FAIR      53  36  51 N8        30.27S
$$



USA.gov is the U.S. government's official web portal to all federal, state and local government web resources and services.